星链-37598(STARLINK-37598)
导读
STARLINK-37598(NORAD编号69357)是美国太空探索技术公司(SpaceX)星链星座的低轨通信卫星,推测属于2026年中上旬发射的批次,当前处于在轨运行状态。作为星链全球组网的组成部分,该卫星主要承担天基互联网传输功能,服务于全球范围的网络覆盖需求,特别是偏远地区、应急通信场景的网络供给。 目前公开数据显示其同批次星链卫星轨道周期约94分钟,运行于低地球轨道,依托星链星座的组网架构,可与同轨道面卫星、地面网关站协同完成通信信号的中继传输,为个人用户、行业终端提供低延迟、广覆盖的互联网接入服务。
Basic Information
目录编号:
69357
目录名称:
STARLINK-37598
国际标识:
2026-123E
轨道中心:
EARTH
卫星名称:
星链-37598
卫星全名:
星链-37598(STARLINK-37598)
卫星状态:
在轨 (已飞行100 天)
发射日期:
2026-06-04 UTC
国别 :
美国
(US)
星等 :
--
This satellite is enrolled in the Space Conjunction Data Service (SCDS) and the current flight risk assessment level is: No High Risk
Orbit Information
| 数据来源 | 国际轨道数据 |
| 星历时间: | 2026-09-12T08:39:26+0800 8小时前 查看轨道信息 |
| 半长轴: | 6840.873km |
| 偏心率: | 0.0001219 |
| 轨道倾角: | 53.159° |
| 近地点辐角 | 125.425° |
| 升交点赤经 | 181.014° |
| 平近点角 | 234.686° |
| 近地点: | 461.902km |
| 远地点: | 463.57km |
| 周期: | 93.848分钟 |
| 每日圈数: | 15.343893 |
Detailed Information
固有亮度:
5
最大亮度:
2.5
卫星平台:
Starlink V1.0
覆盖范围:
全球
运营商:
太空探索技术公司
运营商所在国:
美国
制造商(研发单位):
太空探索技术公司
制造商所在国:
美国
使用方式:
暂无
Satellite Introduction
Starlink 计划是 SpaceX 推出的全球卫星互联网项目,通过发射低轨道卫星,为全球尤其是偏远地区提供高速、低延迟的互联网服务。自 2019 年起,Starlink 已部署数千颗卫星,旨在缩小全球数字鸿沟,推动互联网普及。该项目还为军事、航空等行业提供通信支持,带来广泛经济效益。
2D Orbit Map
3D Orbit Map
Orbit Altitude Analysis Chart
Orbit Inclination Analysis Chart
Orbit Comprehensive Analysis Chart
View Comprehensive ChartConjunction Data List
| Event ID | Objects | TCA | Miss Dist (km) | Collision Risk Probability | Collision Risk Index (CRI) | Action |
|---|---|---|---|---|---|---|
| CDM_260912-194605-895106-935721 |
STARLINK-31330
(58951)
STARLINK-37598
(69357) | 2026-09-12T 19:46:20+0000 |
0.310 km
远距离 | 2.194957E-4 高风险 | 0.82 | |
| CDM_260912-133905-286506-935721 |
STARLINK-4274
(52865)
STARLINK-37598
(69357) | 2026-09-12T 13:39:35+0000 |
0.481 km
远距离 | 1.503955E-4 高风险 | 0.79 | |
| CDM_260914-075105-286506-935721 |
STARLINK-4274
(52865)
STARLINK-37598
(69357) | 2026-09-14T 07:51:43+0000 |
0.688 km
远距离 | 5.73553E-5 中风险 | 0.7 | |
| CDM_260914-111106-286706-935721 |
STARLINK-32846
(62867)
STARLINK-37598
(69357) | 2026-09-14T 11:11:57+0000 |
1.119 km
极远距离 | 1.587177E-5 中风险 | 0.59 | |
| CDM_260912-102905-189806-935721 |
STARLINK-3597
(51898)
STARLINK-37598
(69357) | 2026-09-12T 10:29:12+0000 |
1.156 km
极远距离 | 7.45497E-6 低风险 | 0.52 | |
| CDM_260912-142305-189806-935721 |
STARLINK-3597
(51898)
STARLINK-37598
(69357) | 2026-09-12T 14:23:41+0000 |
1.252 km
极远距离 | 5.673226E-6 低风险 | 0.5 | |
| CDM_260912-172505-895106-935721 |
STARLINK-31330
(58951)
STARLINK-37598
(69357) | 2026-09-12T 17:25:39+0000 |
1.570 km
极远距离 | 1.863177E-6 低风险 | 0.4 | |
| CDM_260914-145305-286506-935721 |
STARLINK-4274
(52865)
STARLINK-37598
(69357) | 2026-09-14T 14:53:45+0000 |
2.018 km
极远距离 | 1.832221E-6 低风险 | 0.4 | |
| CDM_260909-100605-255906-935722 |
STARLINK-3953
(52559)
STARLINK-37598
(69357) | 2026-09-09T 10:06:40+0000 |
2.576 km
极远距离 | 1.488476E-6 低风险 | 0.38 | |
| CDM_260914-093806-286706-935721 |
STARLINK-32846
(62867)
STARLINK-37598
(69357) | 2026-09-14T 09:38:10+0000 |
2.720 km
极远距离 | 1.355619E-6 低风险 | 0.38 |
Miss Distance Evolution Trend with All Objects
Collision Probability Evolution Trend with All Objects

